Regional Weather Roundup
Issued by NWS Memphis, TN

Home | Current Version | Previous Version | Text Only | Print | Product List | Glossary On
Versions: 1 2 3 4 5 6 7 8 9 10 11 12 13 14 15 16 17 18 19 20 21 22 23 24 25 26 27 28 29 30 31 32 33 34 35 36 37 38 39 40 41 42 43 44 45 46 47 48 49 50
000
ASUS44 KMEG 181010
RWRMEG
MEMPHIS CWA HOURLY WEATHER ROUNDUP
NATIONAL WEATHER SERVICE MEMPHIS TN
500 AM CDT THU SEP 18 2014

...WEST TENNESSEE...

CITY           SKY/WX    TMP DP  RH WIND       PRES   REMARKS
MEMPHIS INTL   CLOUDY    68  64  87 NE6       29.93R
NWS MEMPHIS      N/A     65 N/A N/A MISG        N/A
JACKSON        CLOUDY    64  61  90 CALM      29.95R
LEXINGTON      CLOUDY    61  61 100 CALM      29.96R
SAVANNAH       MOCLDY    63  63 100 CALM      29.96R
DYERSBURG      CLOUDY    63  52  67 NE7       29.96S
UNION CITY     CLOUDY    61  59  94 CALM      29.96S
PARIS          MOCLDY    55  55 100 CALM      29.97S
HUNTINGDON     CLOUDY    59  58  96 E3        29.97S


...EASTERN ARKANSAS...

CITY           SKY/WX    TMP DP  RH WIND       PRES   REMARKS
JONESBORO      CLOUDY    63  62  97 NE3       29.93F
WEST MEMPHIS   CLOUDY    65  65 100 E5        29.92R
BATESVILLE     CLOUDY    63  61  94 CALM      29.94S
NEWPORT        CLOUDY    61  61 100 N3        29.95R FOG
WALNUT RIDGE   CLOUDY    64  61  88 N5        29.95R
BLYTHEVILLE    CLOUDY    66  64  93 N10       29.95S
SEARCY         CLOUDY    63  62  96 N5        29.93S
STUTTGART      CLOUDY    68  64  88 N7        29.91R
PINE BLUFF     CLOUDY    70  68  93 CALM      29.89R
MONTICELLO     MOCLDY    70  68  93 CALM      29.89R


...NORTH MISSISSIPPI...

CITY           SKY/WX    TMP DP  RH WIND       PRES   REMARKS
TUPELO         MOCLDY    66  64  93 NE3       29.93S
OXFORD         MOCLDY    66  64  94 SE3       29.94S
OLIVE BRANCH   CLEAR     64  64 100 NE3       29.94R
CLARKSDALE     CLOUDY    68  68 100 CALM      29.91S
CORINTH        MOCLDY    63  61  94 CALM      29.94S
GRENADA        CLOUDY    68  64  88 CALM      29.91F
GREENWOOD      CLOUDY    70  66  87 NE3       29.90S
COLUMBUS       PTCLDY    65  65 100 CALM      29.93S
STARKVILLE     FAIR      63  63 100 CALM      29.93R FOG
GOLDEN TRIANGL PTCLDY    64  59  82 CALM      29.93S


...SOUTHEAST MISSOURI...

CITY           SKY/WX    TMP DP  RH WIND       PRES   REMARKS
WEST PLAINS    CLOUDY    61  59  93 CALM      29.98R FOG
POPLAR BLUFF   CLOUDY    60  57  89 NE5       29.96R FOG
CAPE GIRARDEAU CLOUDY    59  58  96 CALM      29.98R FOG


...NORTHWEST ALABAMA...

CITY           SKY/WX    TMP DP  RH WIND       PRES   REMARKS
MUSCLE SHOALS  MOCLDY    62  58  86 CALM      29.96S


...MIDDLE TENNESSEE...

CITY           SKY/WX    TMP DP  RH WIND       PRES   REMARKS
NASHVILLE      MOCLDY    62  58  86 CALM      29.98S
CLARKSVILLE    CLOUDY    59  57  93 CALM      29.98R
DICKSON        MOCLDY    57  57 100 CALM      29.97S
COLUMBIA       MOCLDY    59  59 100 CALM      29.96S
LEWISBURG      MOCLDY    55  55 100 CALM      29.98R


...WESTERN KENTUCKY...

CITY           SKY/WX    TMP DP  RH WIND       PRES   REMARKS
PADUCAH        CLOUDY    65  60  84 CALM      29.97R
FORT CAMPBELL  CLOUDY    61  61 100 E2        29.98R


...CENTRAL ARKANSAS...

CITY           SKY/WX    TMP DP  RH WIND       PRES   REMARKS
LITTLE ROCK    CLOUDY    68  64  87 NE6       29.91R FOG


SKY/WX REPORTED AS FAIR MEANS FEW OR NO CLOUDS BELOW
12 THOUSAND FEET.




USA.gov is the U.S. government's official web portal to all federal, state and local government web resources and services.